This is the latest recevied weather packets stored in our database for station/object N4QD-13. If no packets are shown the sender has not sent any weather packets the latest 10 day(s).
| Time | Temp. | Humidity | Pressure | Rain* | Wind** | Luminosity | Snow |
|---|---|---|---|---|---|---|---|
| 1777861090 | 7.22° C | 72% | 1016.7 hPa | 0 mm | - | 0 W/m² | - |
| 1777860788 | 7.22° C | 71% | 1016.4 hPa | 0 mm | - | 0 W/m² | - |
| 1777860484 | 7.22° C | 72% | 1016.5 hPa | 0 mm | - | 0 W/m² | - |
| 1777860181 | 7.22° C | 70% | 1016.5 hPa | 0 mm | - | 0 W/m² | - |
| 1777859877 | 7.22° C | 70% | 1016.5 hPa | 0 mm | - | 0 W/m² | - |
| 1777859574 | 7.22° C | 71% | 1016.6 hPa | 0 mm | - | 0 W/m² | - |
| 1777859270 | 7.22° C | 71% | 1016.4 hPa | 0 mm | - | 0 W/m² | - |
| 1777858966 | 7.78° C | 69% | 1016.5 hPa | 0 mm | - | 0 W/m² | - |
| 1777858664 | 7.78° C | 68% | 1016.4 hPa | 0 mm | - | 0 W/m² | - |
| 1777858361 | 7.78° C | 68% | 1016.3 hPa | 0 mm | - | 0 W/m² | - |
| 1777858057 | 7.78° C | 68% | 1016.3 hPa | 0 mm | - | 0 W/m² | - |
| 1777857756 | 8.33° C | 67% | 1015.8 hPa | 0 mm | - | 0 W/m² | - |
| 1777857452 | 8.89° C | 64% | 1015.9 hPa | 0 mm | - | 0 W/m² | - |
| 1777857149 | 8.89° C | 64% | 1015.8 hPa | 0 mm | - | 0 W/m² | - |
| 1777856845 | 8.89° C | 64% | 1015.8 hPa | 0 mm | - | 0 W/m² | - |
| 1777856541 | 9.44° C | 65% | 1015.6 hPa | 0 mm | - | 0 W/m² | - |
| 1777856238 | 10° C | 63% | 1015.7 hPa | 0 mm | - | 0 W/m² | - |
| 1777855935 | 10° C | 60% | 1015.7 hPa | 0 mm | - | 0 W/m² | - |
| 1777855633 | 10° C | 58% | 1015.7 hPa | 0 mm | - | 0 W/m² | - |
| 1777855329 | 10.56° C | 59% | 1015.9 hPa | 0 mm | - | 0 W/m² | - |
| 1777855026 | 11.11° C | 59% | 1015.7 hPa | 0 mm | - | 0 W/m² | - |
| 1777854723 | 11.67° C | 56% | 1015.6 hPa | 0 mm | - | 0 W/m² | - |
| 1777854420 | 11.67° C | 51% | 1015.5 hPa | 0 mm | - | 0 W/m² | - |
| 1777854117 | 12.22° C | 48% | 1015.5 hPa | 0 mm | - | 0 W/m² | - |
| 1777853815 | 12.78° C | 44% | 1015.4 hPa | 0 mm | - | 0 W/m² | - |
* Rain latest hour (hover to see other rain measurements)
** Current wind speed in m/s (hover to see current wind gust speed)